This demonstration page uses our WeatherBlox Daily Observations layout. Learn more.

Left ArrowRight Arrow

Hourly Observations for February 14, 2016

Temp ( °F °C ) Dew Point ( °F °C ) Humidity (%) Winds ( mph kmh ) Pressure ( in mb ) Visibility ( mi km ) Precip ( " mm )
12:58 am 00:58 Mostly Cloudy 19 -7.1 3 -15.9 50 50 ESE 16 26 30.17 1022 10 16 0.00 0.00
1:58 am 01:58 Cloudy 20 -6.7 4 -15.4 50 50 SE 15 24 30.15 1021 10 16 0.00 0.00
2:58 am 02:58 Cloudy 20 -6.4 5 -15 51 51 SE 15 24 30.10 1019 10 16 0.00 0.00
3:30 am 03:30 Cloudy with Light Snow 21 -6 7 -14 54 54 SE 18 30 30.09 1019 10 16 0.00 0.00
3:34 am 03:34 Cloudy 21 -6 7 -14 54 54 SE 17 28 30.09 1019 10 16 0.00 0.00
3:58 am 03:58 Cloudy 21 -6.3 6 -14.2 54 54 SE 15 24 30.05 1018 10 16 0.00 0.03
4:58 am 04:58 Cloudy 22 -5.8 6 -14.2 52 52 SSE 20 31 30.02 1017 10 16 0.00 0.00
5:10 am 05:10 Cloudy with Light Snow 21 -6 7 -14 54 54 SSE 18 30 30.00 1016 10 16 0.00 0.00
5:28 am 05:28 Cloudy 21 -6 7 -14 54 54 SSE 15 24 30.00 1016 10 16 0.00 0.00
5:58 am 05:58 Cloudy 22 -5.5 7 -14 52 52 SSE 13 20 29.99 1016 10 16 0.00 0.00
6:26 am 06:26 Cloudy 23 -5 7 -14 50 50 SSE 10 17 30.00 1016 10 16 0.00 0.00
6:34 am 06:34 Cloudy 23 -5 9 -13 54 54 S 12 19 29.97 1015 10 16 0.00 0.00
6:56 am 06:56 Cloudy 23 -5 9 -13 54 54 S 13 20 29.97 1015 10 16 0.00 0.00
6:58 am 06:58 Cloudy 23 -5.2 8 -13.1 54 54 S 13 20 29.98 1015 10 16 0.00 0.00
7:09 am 07:09 Cloudy 23 -5 9 -13 54 54 S 12 19 29.97 1015 10 16 0.00 0.00
7:21 am 07:21 Mostly Cloudy with Light Snow 23 -5 9 -13 54 54 S 10 17 29.97 1015 10 16 0.00 0.00
7:34 am 07:34 Mostly Cloudy 23 -5 10 -12 58 58 SSE 12 19 29.97 1015 10 16 0.00 0.00
7:58 am 07:58 Cloudy 23 -5 10 -12.5 56 56 S 12 19 29.97 1015 10 16 0.00 0.03
8:58 am 08:58 Cloudy 25 -4.1 11 -11.7 56 56 S 9 15 29.95 1014 10 16 0.00 0.00
9:36 am 09:36 Cloudy 25 -4 12 -11 59 59 S 7 11 29.94 1014 10 16 0.00 0.00
9:58 am 09:58 Cloudy 27 -3 12 -10.9 55 55 S 8 13 29.93 1013 10 16 0.00 0.00
10:44 am 10:44 Cloudy 30 -1 16 -9 55 55 SW 5 7 29.91 1013 10 16 0.00 0.00
10:58 am 10:58 Cloudy 31 -0.6 17 -8.1 57 57 SW 6 9 29.90 1013 10 16 0.00 0.00
11:05 am 11:05 Cloudy 32 0 19 -7 60 60 WSW 7 11 29.88 1012 10 16 0.00 0.00
11:20 am 11:20 Cloudy 32 0 19 -7 60 60 WSW 7 11 29.88 1012 10 16 0.00 0.00
11:58 am 11:58 Cloudy 35 1.6 23 -5.1 61 61 WSW 6 9 29.88 1012 10 16 0.00 0.00
12:58 pm 12:58 Sunny 39 3.7 28 -2.3 65 65 W 10 17 29.84 1011 10 16 0.00 0.00
1:53 pm 13:53 Mostly Cloudy 39 4 28 -2 65 65 NW 14 22 29.83 1010 10 16 0.00 0.00
1:58 pm 13:58 Mostly Cloudy 38 3.6 29 -1.8 68 68 NW 14 22 29.85 1011 10 16 0.00 0.00
2:34 pm 14:34 Mostly Cloudy 39 4 28 -2 65 65 WNW 10 17 29.85 1011 10 16 0.00 0.00
2:58 pm 14:58 Cloudy 38 3.4 30 -1.2 72 72 W 12 19 29.88 1012 10 16 0.00 0.00
3:02 pm 15:02 Cloudy 37 3 30 -1 75 75 W 10 17 29.85 1011 10 16 0.00 0.00
3:14 pm 15:14 Cloudy 37 3 30 -1 75 75 W 10 17 29.85 1011 10 16 0.00 0.00
3:34 pm 15:34 Cloudy 37 3 30 -1 75 75 W 10 17 29.85 1011 10 16 0.00 0.00
3:40 pm 15:40 Cloudy 37 3 30 -1 75 75 W 10 17 29.85 1011 10 16 0.00 0.00
3:58 pm 15:58 Cloudy 38 3.5 30 -1.2 72 72 WNW 13 20 29.88 1012 10 16 0.00 0.00
4:20 pm 16:20 Cloudy 39 4 32 0 75 75 WNW 13 20 29.88 1012 10 16 0.00 0.00
4:30 pm 16:30 Mostly Cloudy 39 4 32 0 75 75 WNW 13 20 29.88 1012 10 16 0.00 0.00
4:58 pm 16:58 Cloudy 38 3.4 30 -1 73 73 WNW 10 17 29.89 1012 10 16 0.00 0.00
5:58 pm 17:58 Cloudy 37 2.6 30 -1 77 77 NW 8 13 29.89 1012 10 16 0.00 0.00
6:58 pm 18:58 Mostly Cloudy 33 0.3 29 -1.8 86 86 WNW 3 6 29.92 1013 10 16 0.00 0.00
7:58 pm 19:58 Clear 31 -0.4 28 -2.2 88 88 Calm 29.92 1013 10 16 0.00 0.00
8:58 pm 20:58 Mostly Clear 28 -2.4 27 -2.8 97 97 S 3 6 29.93 1014 10 16 0.00 0.00
9:58 pm 21:58 Mostly Cloudy 27 -3 26 -3.2 99 99 Calm 29.93 1014 10 16 0.00 0.00
10:58 pm 22:58 Cloudy 29 -1.7 29 -1.8 99 99 Calm 29.91 1013 10 16 0.00 0.00
11:58 pm 23:58 Cloudy 30 -1.3 29 -1.4 99 99 NNE 2 4 29.91 1013 10 16 0.00 0.00

Powered by AerisWeather